Tracking 29892 objects as of 21-Nov-2024
HD Live streaming from Space Station
objects crossing your sky now

STARLINK-6047

Track STARLINK-6047 now!
10-day predictions
STARLINK-6047 is classified as:


NORAD ID: 56460
Int'l Code: 2023-064N
Perigee: 577.5 km
Apogee: 580.9 km
Inclination: 70.0 °
Period: 96.1 minutes
Semi major axis: 6950 km
RCS: Unknown
Launch date: May 10, 2023
Source: United States (US)
Launch site: AIR FORCE WESTERN TEST RANGE (AFWTR)
Your satellite tracking list
Your tracking list is empty




NASA's NSSDC Master Catalog

Two Line Element Set (TLE):
1 56460U 23064N   24325.80196770  .00000495  00000-0  49251-4 0  9993
2 56460  70.0004 259.2371 0002448 253.6611 106.4279 14.98330195 84267
Source of the keplerian elements: AFSPC